Change the Weather History Date:

Thursday, April 17, 2014

  Actual Average Record
Temperature  
Mean Temperature 55 °F -  
Max Temperature 69 °F 76 °F 87 °F (2012)
Min Temperature 41 °F 47 °F 41 °F (2014)
Degree Days  
Heating Degree Days 10    
Growing Degree Days 5 (Base 50)    
Moisture  
Dew Point 40 °F    
Average Humidity 63    
Maximum Humidity 93    
Minimum Humidity 38    
Precipitation  
Precipitation 0.00 in - - ()
Sea Level Pressure  
Sea Level Pressure 30.42 in    
Wind  
Wind Speed 3 mph (NNE)    
Max Wind Speed 9 mph    
Max Gust Speed -    
Visibility 10 miles    
Events      
Averages and records for this station are not official NWS values.
T = Trace of Precipitation, MM = Missing Value Source: NWS Daily Summary

Daily Weather History Graph

Daily Weather History Graph

Search for Another Location

Airport or City:

Trip Planner

Search our weather history database for the weather conditions in past years. The results will help you decide how hot, cold, wet, or windy it might be!

Date:

Astronomy

Apr. 17, 2014 Rise Set
Actual Time 6:46 AM EDT 7:52 PM EDT
Civil Twilight 6:20 AM EDT 8:17 PM EDT
Nautical Twilight 5:50 AM EDT 8:48 PM EDT
Astronomical Twilight 5:18 AM EDT 9:20 PM EDT
Moon 10:30 PM EDT (4/17) 8:21 AM EDT (4/17)
Length of Visible Light 13h 57m
Length of Day
13h 05m
Waning Gibbous, 94% of the Moon is Illuminated
Apr 17
Waning Gibbous
Apr 22
Last Quarter
Apr 29
New
May 6
First Quarter
May 14
Full

Hourly Weather History & Observations

Time (EDT) Temp. Windchill Dew Point Humidity Pressure Visibility Wind Dir Wind Speed Gust Speed Precip Events Conditions
12:15 AM 44.6 °F - 39.2 °F 81% 30.40 in 10.0 mi Calm Calm - N/A   Clear
12:35 AM 44.6 °F - 39.2 °F 81% 30.40 in 10.0 mi Calm Calm - N/A   Clear
12:55 AM 42.8 °F - 41.0 °F 93% 30.40 in 10.0 mi Calm Calm - N/A   Clear
1:15 AM 42.8 °F - 39.2 °F 87% 30.40 in 10.0 mi Calm Calm - N/A   Clear
1:35 AM 42.8 °F - 39.2 °F 87% 30.40 in 10.0 mi Calm Calm - N/A   Clear
2:15 AM 42.8 °F 41.1 °F 37.4 °F 81% 30.40 in 10.0 mi North 3.5 mph - N/A   Clear
2:35 AM 42.8 °F 41.1 °F 37.4 °F 81% 30.41 in 10.0 mi NE 3.5 mph - N/A   Clear
2:55 AM 42.8 °F - 37.4 °F 81% 30.41 in 10.0 mi Calm Calm - N/A   Clear
3:15 AM 42.8 °F - 37.4 °F 81% 30.42 in 10.0 mi Calm Calm - N/A   Clear
3:35 AM 41.0 °F - 37.4 °F 87% 30.42 in 10.0 mi Calm Calm - N/A   Clear
3:55 AM 41.0 °F - 35.6 °F 81% 30.42 in 10.0 mi Calm Calm - N/A   Clear
4:15 AM 41.0 °F - 37.4 °F 87% 30.41 in 10.0 mi Calm Calm - N/A   Clear
4:35 AM 41.0 °F 39.0 °F 35.6 °F 81% 30.41 in 10.0 mi North 3.5 mph - N/A   Clear
5:15 AM 41.0 °F 38.0 °F 35.6 °F 81% 30.41 in 10.0 mi NNE 4.6 mph - N/A   Clear
5:35 AM 41.0 °F 38.0 °F 33.8 °F 76% 30.41 in 10.0 mi NNE 4.6 mph - N/A   Clear
5:55 AM 41.0 °F 38.0 °F 32.0 °F 70% 30.41 in 10.0 mi NE 4.6 mph - N/A   Clear
6:15 AM 41.0 °F 36.4 °F 32.0 °F 70% 30.42 in 10.0 mi North 6.9 mph - N/A   Clear
6:35 AM 41.0 °F 38.0 °F 32.0 °F 70% 30.43 in 10.0 mi North 4.6 mph - N/A   Clear
6:55 AM 41.0 °F 39.0 °F 32.0 °F 70% 30.44 in 10.0 mi North 3.5 mph - N/A   Scattered Clouds
7:15 AM 41.0 °F 38.0 °F 32.0 °F 70% 30.44 in 10.0 mi North 4.6 mph - N/A   Scattered Clouds
7:35 AM 41.0 °F 38.0 °F 32.0 °F 70% 30.45 in 10.0 mi North 4.6 mph - N/A   Clear
7:55 AM 42.8 °F 38.6 °F 32.0 °F 66% 30.46 in 10.0 mi North 6.9 mph - N/A   Clear
8:15 AM 42.8 °F 38.0 °F 32.0 °F 66% 30.47 in 10.0 mi NNE 8.1 mph - N/A   Clear
8:35 AM 42.8 °F 38.0 °F 33.8 °F 70% 30.47 in 10.0 mi NNE 8.1 mph - N/A   Clear
8:55 AM 44.6 °F - 33.8 °F 66% 30.47 in 10.0 mi Calm Calm - N/A   Clear
9:15 AM 46.4 °F 42.4 °F 33.8 °F 62% 30.48 in 10.0 mi NNE 8.1 mph - N/A   Clear
9:35 AM 46.4 °F 42.4 °F 33.8 °F 62% 30.48 in 10.0 mi North 8.1 mph - N/A   Clear
9:55 AM 50.0 °F - 35.6 °F 58% 30.48 in 10.0 mi North 8.1 mph - N/A   Clear
10:15 AM 50.0 °F - 35.6 °F 58% 30.49 in 10.0 mi North 8.1 mph - N/A   Clear
10:35 AM 51.8 °F - 35.6 °F 54% 30.49 in 10.0 mi North 8.1 mph - N/A   Clear
10:55 AM 51.8 °F - 35.6 °F 54% 30.49 in 10.0 mi North 8.1 mph - N/A   Clear
11:15 AM 53.6 °F - 37.4 °F 54% 30.49 in 10.0 mi NNW 5.8 mph - N/A   Clear
11:35 AM 55.4 °F - 37.4 °F 51% 30.48 in 10.0 mi North 6.9 mph - N/A   Clear
11:55 AM 55.4 °F - 39.2 °F 54% 30.48 in 10.0 mi North 4.6 mph - N/A   Clear
12:15 PM 59.0 °F - 39.2 °F 48% 30.47 in 10.0 mi NNE 3.5 mph - N/A   Clear
12:35 PM 60.8 °F - 41.0 °F 48% 30.47 in 10.0 mi North 5.8 mph - N/A   Clear
1:15 PM 62.6 °F - 41.0 °F 45% 30.45 in 10.0 mi North 9.2 mph - N/A   Clear
1:35 PM 62.6 °F - 41.0 °F 45% 30.45 in 10.0 mi NNW 4.6 mph - N/A   Clear
1:55 PM 64.4 °F - 41.0 °F 42% 30.45 in 10.0 mi Calm Calm - N/A   Scattered Clouds
2:15 PM 64.4 °F - 42.8 °F 45% 30.44 in 10.0 mi NNW 8.1 mph - N/A   Clear
2:35 PM 66.2 °F - 42.8 °F 43% 30.44 in 10.0 mi North 5.8 mph - N/A   Clear
2:55 PM 68.0 °F - 42.8 °F 40% 30.43 in 10.0 mi ENE 3.5 mph - N/A   Clear
3:15 PM 68.0 °F - 42.8 °F 40% 30.42 in 10.0 mi NNE 6.9 mph - N/A   Clear
3:35 PM 68.0 °F - 42.8 °F 40% 30.41 in 10.0 mi NE 6.9 mph - N/A   Clear
3:55 PM 68.0 °F - 42.8 °F 40% 30.40 in 10.0 mi North 5.8 mph - N/A   Clear
4:15 PM 69.8 °F - 42.8 °F 38% 30.39 in 10.0 mi North 6.9 mph - N/A   Clear
4:35 PM 69.8 °F - 42.8 °F 38% 30.38 in 10.0 mi East 3.5 mph - N/A   Clear
4:55 PM 69.8 °F - 42.8 °F 38% 30.38 in 10.0 mi NE 5.8 mph - N/A   Clear
5:15 PM 69.8 °F - 42.8 °F 38% 30.37 in 10.0 mi NE 5.8 mph - N/A   Clear
5:35 PM 69.8 °F - 42.8 °F 38% 30.36 in 10.0 mi ENE 5.8 mph - N/A   Clear
5:55 PM 69.8 °F - 42.8 °F 38% 30.35 in 10.0 mi NNE 9.2 mph - N/A   Clear
6:15 PM 68.0 °F - 42.8 °F 40% 30.35 in 10.0 mi NNE 5.8 mph - N/A   Clear
6:35 PM 68.0 °F - 42.8 °F 40% 30.37 in 10.0 mi ENE 3.5 mph - N/A   Clear
6:55 PM 68.0 °F - 44.6 °F 43% 30.37 in 10.0 mi NNE 4.6 mph - N/A   Clear
7:15 PM 66.2 °F - 44.6 °F 46% 30.37 in 10.0 mi Calm Calm - N/A   Clear
7:35 PM 64.4 °F - 46.4 °F 52% 30.37 in 10.0 mi Calm Calm - N/A   Clear
8:15 PM 60.8 °F - 46.4 °F 59% 30.36 in 10.0 mi Calm Calm - N/A   Clear
8:35 PM 60.8 °F - 46.4 °F 59% 30.37 in 10.0 mi Calm Calm - N/A   Clear
8:55 PM 57.2 °F - 46.4 °F 67% 30.37 in 10.0 mi Calm Calm - N/A   Clear
9:15 PM 55.4 °F - 48.2 °F 77% 30.39 in 10.0 mi Calm Calm - N/A   Clear
9:35 PM 55.4 °F - 48.2 °F 77% 30.40 in 10.0 mi Calm Calm - N/A   Clear
9:55 PM 53.6 °F - 48.2 °F 82% 30.39 in 10.0 mi Calm Calm - N/A   Clear
10:15 PM 53.6 °F - 48.2 °F 82% 30.39 in 10.0 mi Calm Calm - N/A   Clear
10:35 PM 51.8 °F - 48.2 °F 88% 30.39 in 10.0 mi Calm Calm - N/A   Clear
11:15 PM 51.8 °F - 48.2 °F 88% 30.38 in 10.0 mi Calm Calm - N/A   Clear
11:35 PM 51.8 °F - 48.2 °F 88% 30.38 in 10.0 mi Calm Calm - N/A   Clear